Regional Weather Roundup
Issued by NWS

Home | Current Version | Previous Version | Graphics & Text | Print | Product List | Glossary On
Versions: 1 2 3 4 5 6 7 8 9 10 11 12 13 14 15 16 17 18 19 20 21 22 23 24 25 26 27 28
000
ASUS45 KSLC 221110
RWRUT

UTAH REGIONAL WEATHER ROUNDUP
NATIONAL WEATHER SERVICE SALT LAKE CITY UT
500 AM MDT SUN APR 22 2018

UTZ001>011-023>025-221200-

NORTHERN UTAH

CITY           SKY/WX    TMP DP  RH WIND       PRES   REMARKS
BRIGHAM CITY   CLEAR     41  33  72 CALM      30.15S
HILL AFB       CLEAR     47  27  45 NE12      30.14S
LOGAN          CLEAR     45  33  63 CALM      30.16S
OGDEN          CLEAR     45  29  53 MISG      30.13S
SALT LAKE CITY CLEAR     47  33  58 SE6       30.13F
TOOELE VALLEY  CLEAR     43  32  65 S8        30.14F
WENDOVER       CLEAR     51  27  39 W3        30.12S
HEBER CITY       N/A     30  23  74 E5        30.21S WCI  25
WEST JORDAN    CLEAR     43  32  65 CALM      30.15F

$$

UTZ011>015-024>027-221200-

CENTRAL/NORTHEAST UTAH

CITY           SKY/WX    TMP DP  RH WIND       PRES   REMARKS
PROVO AIRPORT  CLEAR     45  32  60 SE7       30.17S
MOAB/CANYONLAN CLEAR     51  34  52 SE8       30.14S
DELTA          CLEAR     36  34  93 E7        30.15S WCI  30
PRICE          CLEAR     43  24  47 CALM      30.18S
ROOSEVELT      CLEAR     34  30  86 SW5       30.20S WCI  30
VERNAL         CLEAR     40  33  76 NW3       30.18S

$$

UTZ013>016-019>022-027-221200-

SOUTHERN UTAH

CITY           SKY/WX    TMP DP  RH WIND       PRES   REMARKS
BRYCE CANYON   CLEAR     29  22  75 W10       30.26F WCI  20
CEDAR CITY     CLEAR     35  30  82 SW6       30.16S WCI  30
MILFORD        CLEAR     37  34  89 S7        30.15F WCI  32
ST GEORGE      SUNNY     54  25  32 SE5       30.05S
HANKSVILLE     CLEAR     45  23  42 CALM      30.16S
BLANDING         N/A     46  25  44 N9        30.25S

$$

REGIONAL REPORTS     COLORADO/ARIZONA

CITY           SKY/WX    TMP DP  RH WIND       PRES   REMARKS
CRAIG, CO      CLEAR     29  28  96 CALM      30.24R
GRAND JUNCTION CLEAR     42  34  73 SE8       30.20R
RIFLE, CO      CLEAR     35  32  88 CALM      30.26S
MONTROSE, CO   CLEAR     34  29  82 SE7       30.26S WCI  28
CORTEZ, CO     CLEAR     33  22  63 NE7       30.20R WCI  27
COLORADO CITY    N/A     41  30  65 CALM      30.15S
PAGE, AZ       CLEAR     51  28  41 SW3       30.10F
GRAND CANYON   MOCLDY    30  22  72 CALM      30.20S
KINGMAN, AZ    PTCLDY    51  22  31 SE8       30.03S
FLAGSTAFF, AZ  PTCLDY    28  16  60 CALM      30.21S

$$

REGIONAL REPORTS    NEVADA/IDAHO/WYOMING

CITY           SKY/WX    TMP DP  RH WIND       PRES   REMARKS
LAS VEGAS, NV  PTCLDY    66  26  22 SW6       29.98R
ELY, NY        CLEAR     31  18  58 SE12      30.20S WCI  22
ELKO, NV       CLEAR     38  30  73 E5        30.14S WCI  34
POCATELLO, ID  CLEAR     40  28  62 CALM      30.14S
BURLEY, ID     CLEAR     38  31  76 CALM      30.12S
FORT BRIDGER,  SUNNY     41  27  56 W8        30.26F
EVANSTON, WY   CLEAR     39  24  55 S6        30.25S WCI  35
ROCK SPRINGS,  CLEAR     37  26  64 W9        30.21R WCI  30
KEMMERER, WY   CLEAR     34  27  75 NW6       30.24F WCI  29

$$




USA.gov is the U.S. government's official web portal to all federal, state and local government web resources and services.